Location: Casteau
(50.5142°N, 4.0161°E)
Time: 15:16:32
(UTC+00:00)

Meteor 1-24 Rocket - Pass Details

Date: 18 September 2020
Orbit: 790 x 927 km, 81.2° (Epoch: 23 October)

Event Time Altitude Azimuth Distance (km) Brightness Sun altitude
Rises 20:47:41 0° 344° (NNW) 3,344 7.7 -26.7°
Reaches altitude 10° 20:50:05 10° 341° (NNW) 2,423 6.8 -27.0°
Maximum altitude 20:55:26 57° 264° (W) 988 4.1 -27.6°
Enters shadow 20:56:34 47° 221° (SW) 1,100 4.2 -27.7°
